Location: Guferjoch
(46.7462°N, 8.4506°E)
Time: 00:25:18
(UTC+00:00)

USA 238 DEB - Pass Details

Date: 14 July 2020
Orbit: 1012 x 1200 km, 63.4° (Epoch: 02 August)

Event Time Altitude Azimuth Distance (km) Brightness Sun altitude
Exits shadow 02:58:24 - 202° (SSW) 3,211 5.6 -7.3°
Reaches altitude 10° 02:59:32 10° 201° (SSW) 2,804 5.4 -7.2°
Maximum altitude 03:06:01 62° 122° (ESE) 1,168 4.1 -6.4°
Drops below altitude 10° 03:12:46 10° 44° (NE) 2,922 7.9 -5.5°
Sets 03:15:30 0° 41° (NE) 3,909 9.0 -5.1°
